STARLINK-32449, 61670

Orbit data source: Space-Track

STARLINK-32449, 61670 is a payload satellite owned by SpaceX/Seattle (US) in LEO that was launched on Sat, 26 Oct 2024 UTC via an FALCON 9 launch vehicle from the Air Force Eastern Test Range (AFETR). Payloads include a variety of satellites, spacecraft, and rockets equipped with specific instruments for various scientific and technological missions. These include communications satellites like Starlink; space stations such as the ISS; scientific satellites like the Hubble; Earth observation satellites from companies like Planet Labs, Umbra, and HawkEye 360; GPS; miniature CubeSats for education and research; and military/defense satellites.

Loading next visibility...
STARLINK-32449 details
Identifier
61670, 2024-193K
Orbit
LEO
Last TLE update10 hours ago
Origin
Flag of USSpaceX/Seattle (US)
ManufacturerSpaceX/Seattle
MissionOperational spacecraft
Bus & MotorSTARLINK V2M, Unknown motor
Mass730 kg wet, ~700 kg dry
Launch date (UTC)
2024-10-26 (2 months ago)
Launch vehicle
FALCON 9
Launch site
Air Force Eastern Test Range (AFETR)
Object type
Payload
Rocket body
Debris
Shape & HBRUnknown
Radar Cross SectionLarge (>1 m²)

Expand to show TLE details & history

TLE from 10 hours ago
0 STARLINK-32449
1 61670U 24193K   24346.87966085  .00001460  00000-0  46469-4 0  9991
2 61670  53.1623  37.5191 0001252  86.6386 273.4762 15.39621208  7156
Epoch: 2024-12-11T21:06Z
Definitive object data (Epoch: 2024-12-11T21:06:42.697Z)
Latitude-0.00003°
Longitude-0.22683°
Altitude448.081 km
Speed7.645 km/s
True Right ascension02h 30m 04s
True Declination0° 00' 00"
Sunlit
Object was in full shadow at TLE epoch
Visualization TLE readout
Latitude-53.06597°
Longitude-99.98533°
Altitude466.523 km
Speed7.632 km/s
Apparent Right ascension18h 51m 42s
Apparent Declination-47° 21' 08"
Sunlit
Object is in daylight
Visualization observer readout
Local Sidereal Time06:01:58
Azimuth226.26° WSW
Elevation-78.349°
Doppler factor1
Orbital elements
Apogee altitude448.34 km
Perigee altitude446.631 km
Semi-major axis6,825.623 km
Eccentricity0.0001252
Inclination53.1623°
RAAN37.5191°
Arg. of periapsis86.6386°
True anomaly273.46188°
Mean anomaly273.4762°
Eccentric anomaly273.46904°
Mean motion3.84884 °/min
BSTAR0.000046469
Orbital period93.53 mins
Loading maneuver chart data...
Loading historical data...
Loading historical data...
Loading historical data...
Loading historical data...
Loading historical data...
Loading historical data...
Loading historical data...

STARLINK-32449 Visibility forecast

Observer location: undefined°, undefined

Span
Click to sort rows by Start time (UTC) header in descending order
Start Az.
Max El. time (UTC)
Max El. Az.
Max El.
End time (UTC)
End Az.
4 mins2024-12-12 08:17:26.629Z301.892° NW2024-12-12 08:19:26.629Z337.625° N15.076°2024-12-12 08:21:26.629Z14.706° NNE
5 mins2024-12-12 13:12:26.629Z311.771° NW2024-12-12 13:14:26.629Z108.474° ESE44.628°2024-12-12 13:17:26.629Z129.615° SE
5 mins2024-12-13 06:01:26.629Z221.5° SW2024-12-13 06:03:26.629Z99.315° ESE43.976°2024-12-13 06:06:26.629Z52.721° ENE
|